Погода в Поселке Тельмана

Россия / Санкт-Петербург и Ленинградская область     59°43′31″N   30°36′43″E
темп.,
°C
ветер,
м/с
пор.,
м/с
влажн.,
%
обл.,
%
осадки,
мм/ч
давл.,
гПа
погр.,
м
7 марта, вс
вс700:000зюз71396100 2.1 990835
03:00−2з5128693 4.9 989560
06:00−5з7147073 0.3 9881020
09:00−7зсз4117464 0.6 988886
12:00−6зсз697858 0.1 989994
15:00−5сз687779 0.6 9901028
18:00−6зсз6127683 0.0 992633
21:00−7сз6138291 0.0 994648
8 марта, пн
пн800:00−7с61091100 0.3 997957
03:00−9с61190100 0.6 1000853
06:00−10с51191100 0.2 1003790
09:00−11с5989100 0.3 1007719
12:00−10с5884100 0.1 1010642
15:00−9с4782100 0.1 1012677
18:00−11с3688100 0.0 1014425
21:00−14ссз369489 0.1 1016176
9 марта, вт
вт900:00−14с239762 0.0 101795
03:00−16ссв129879 0.1 101824
06:00−17всв129780 0.0 101942
09:00−18в239478 0.0 1020165
12:00−14всв237559 0.0 1021399
15:00−13всв237039 0.0 1021480
18:00−15всв368787 0.0 1021231
21:00−18всв369472 0.0 1022161
10 марта, ср
ср1000:00−19в36920 0.0 1023161
03:00−19в36930 0.0 1024142
06:00−19в35910 0.0 1024134
09:00−18в25840 0.0 1026170
12:00−13в357363 0.0 1026306
15:00−10в356878 0.0 1026481
18:00−12всв3582100 0.0 1025180
21:00−15в359182 0.0 102592
11 марта, чт
чт1100:00−15вюв36922 0.0 1024109
03:00−16вюв36901 0.0 1023127
06:00−16вюв38840 0.0 1021187
09:00−15юв49800 0.0 1019330
12:00−10юв59807 0.0 1016509
15:00−7юв598249 0.0 1012617
18:00−7ююв5128999 0.0 1008573
21:00−5ююв7149099 0.1 1003690